TimeEDT,TemperatureF,Dew PointF,Humidity,Sea Level PressureIn,VisibilityMPH,Wind Direction,Wind SpeedMPH,Gust SpeedMPH,PrecipitationIn,Events,Conditions,WindDirDegrees,DateUTC
12:15 AM,73.4,73.4,100,30.18,5.0,Calm,Calm,-,N/A,,Mostly Cloudy,0,2013-08-19 04:15:00
12:35 AM,73.4,73.4,100,30.18,5.0,Calm,Calm,-,N/A,,Scattered Clouds,0,2013-08-19 04:35:00
12:55 AM,75.2,73.4,94,30.18,7.0,NW,3.5,-,N/A,,Mostly Cloudy,310,2013-08-19 04:55:00
1:15 AM,75.2,73.4,94,30.17,10.0,NNW,3.5,-,N/A,,Overcast,330,2013-08-19 05:15:00
1:35 AM,73.4,71.6,94,30.17,10.0,North,5.8,-,N/A,,Mostly Cloudy,360,2013-08-19 05:35:00
1:55 AM,73.4,71.6,94,30.16,10.0,NNE,6.9,-,N/A,,Scattered Clouds,20,2013-08-19 05:55:00
2:15 AM,73.4,71.6,94,30.17,10.0,North,6.9,-,N/A,,Partly Cloudy,10,2013-08-19 06:15:00
2:35 AM,71.6,69.8,94,30.16,10.0,North,4.6,-,N/A,,Scattered Clouds,10,2013-08-19 06:35:00
2:55 AM,71.6,69.8,94,30.16,10.0,North,4.6,-,N/A,,Partly Cloudy,10,2013-08-19 06:55:00
3:15 AM,71.6,69.8,94,30.15,10.0,NNE,5.8,-,N/A,,Clear,20,2013-08-19 07:15:00
3:35 AM,71.6,69.8,94,30.15,10.0,NNW,3.5,-,N/A,,Partly Cloudy,340,2013-08-19 07:35:00
3:55 AM,71.6,69.8,94,30.15,10.0,North,4.6,-,N/A,,Scattered Clouds,360,2013-08-19 07:55:00
4:15 AM,71.6,69.8,94,30.15,10.0,NNW,4.6,-,N/A,,Overcast,340,2013-08-19 08:15:00
4:35 AM,71.6,69.8,94,30.15,10.0,North,4.6,-,N/A,,Overcast,350,2013-08-19 08:35:00
4:55 AM,71.6,69.8,94,30.14,10.0,North,3.5,-,N/A,,Overcast,360,2013-08-19 08:55:00
5:15 AM,71.6,69.8,94,30.14,10.0,NNE,4.6,-,N/A,,Mostly Cloudy,20,2013-08-19 09:15:00
5:35 AM,71.6,69.8,94,30.14,10.0,NNE,4.6,-,N/A,,Mostly Cloudy,20,2013-08-19 09:35:00
5:55 AM,71.6,69.8,94,30.14,10.0,NNE,5.8,-,N/A,,Mostly Cloudy,20,2013-08-19 09:55:00
6:15 AM,71.6,69.8,94,30.14,6.0,North,6.9,-,N/A,,Overcast,10,2013-08-19 10:15:00
6:35 AM,71.6,69.8,94,30.13,3.0,North,6.9,-,N/A,,Overcast,10,2013-08-19 10:35:00
6:55 AM,69.8,69.8,100,30.14,0.5,North,5.8,-,N/A,,Overcast,10,2013-08-19 10:55:00
7:15 AM,69.8,69.8,100,30.14,0.5,NNE,6.9,-,N/A,,Overcast,30,2013-08-19 11:15:00
7:35 AM,69.8,69.8,100,30.14,0.2,NNE,5.8,-,N/A,,Overcast,20,2013-08-19 11:35:00
7:55 AM,71.6,69.8,94,30.15,0.2,NNE,5.8,-,N/A,,Overcast,30,2013-08-19 11:55:00
8:15 AM,71.6,69.8,94,30.15,0.8,North,6.9,-,N/A,,Overcast,10,2013-08-19 12:15:00
8:35 AM,71.6,69.8,94,30.16,1.0,NNE,8.1,-,N/A,,Overcast,30,2013-08-19 12:35:00
8:55 AM,71.6,69.8,94,30.16,1.0,NNE,8.1,-,N/A,,Overcast,30,2013-08-19 12:55:00
9:15 AM,71.6,69.8,94,30.15,1.0,NNE,8.1,-,N/A,,Overcast,20,2013-08-19 13:15:00
9:35 AM,71.6,71.6,100,30.14,3.0,NNE,9.2,-,N/A,,Overcast,20,2013-08-19 13:35:00
9:55 AM,73.4,71.6,94,30.15,8.0,NE,6.9,-,N/A,,Overcast,40,2013-08-19 13:55:00
10:15 AM,73.4,71.6,94,30.16,9.0,NNE,6.9,-,N/A,,Overcast,20,2013-08-19 14:15:00
10:35 AM,73.4,71.6,94,30.15,4.0,North,8.1,-,N/A,,Overcast,10,2013-08-19 14:35:00
10:55 AM,73.4,71.6,94,30.16,3.0,NNW,3.5,-,N/A,,Overcast,340,2013-08-19 14:55:00
11:15 AM,73.4,71.6,94,30.17,1.0,NW,5.8,-,N/A,,Overcast,310,2013-08-19 15:15:00
11:35 AM,73.4,71.6,94,30.17,1.0,West,5.8,-,N/A,,Overcast,280,2013-08-19 15:35:00
11:55 AM,73.4,71.6,94,30.18,2.5,WNW,5.8,-,N/A,,Mostly Cloudy,290,2013-08-19 15:55:00
12:15 PM,73.4,71.6,94,30.17,5.0,NNW,8.1,-,N/A,,Scattered Clouds,330,2013-08-19 16:15:00
12:35 PM,73.4,71.6,94,30.17,3.0,NW,4.6,-,N/A,,Scattered Clouds,310,2013-08-19 16:35:00
12:55 PM,73.4,71.6,94,30.16,4.0,NNW,6.9,-,N/A,,Partly Cloudy,340,2013-08-19 16:55:00
1:15 PM,73.4,71.6,94,30.16,10.0,NNW,3.5,-,N/A,,Mostly Cloudy,330,2013-08-19 17:15:00
1:35 PM,73.4,71.6,94,30.14,10.0,North,6.9,-,N/A,,Overcast,10,2013-08-19 17:35:00
1:55 PM,73.4,71.6,94,30.13,10.0,NE,11.5,-,N/A,,Mostly Cloudy,50,2013-08-19 17:55:00
2:15 PM,75.2,71.6,89,30.13,10.0,NE,8.1,-,N/A,,Mostly Cloudy,50,2013-08-19 18:15:00
2:35 PM,75.2,71.6,89,30.13,10.0,NNE,6.9,-,N/A,,Mostly Cloudy,20,2013-08-19 18:35:00
2:55 PM,77.0,71.6,83,30.13,10.0,NE,9.2,-,N/A,,Mostly Cloudy,40,2013-08-19 18:55:00
3:15 PM,78.8,71.6,78,30.12,10.0,NE,8.1,-,N/A,,Overcast,40,2013-08-19 19:15:00
3:35 PM,78.8,71.6,78,30.12,10.0,NE,6.9,-,N/A,,Mostly Cloudy,50,2013-08-19 19:35:00
3:55 PM,78.8,71.6,78,30.12,10.0,North,8.1,-,N/A,,Overcast,10,2013-08-19 19:55:00
4:15 PM,78.8,71.6,78,30.11,10.0,NNE,5.8,-,N/A,,Overcast,20,2013-08-19 20:15:00
4:35 PM,77.0,71.6,83,30.11,10.0,North,4.6,-,N/A,,Overcast,360,2013-08-19 20:35:00
4:55 PM,78.8,71.6,78,30.11,10.0,North,6.9,-,N/A,,Overcast,10,2013-08-19 20:55:00
5:15 PM,77.0,71.6,83,30.11,10.0,NNE,8.1,-,N/A,,Mostly Cloudy,30,2013-08-19 21:15:00
5:35 PM,77.0,71.6,83,30.10,10.0,NNE,11.5,-,N/A,,Mostly Cloudy,20,2013-08-19 21:35:00
5:55 PM,77.0,71.6,83,30.10,10.0,North,8.1,-,N/A,,Overcast,10,2013-08-19 21:55:00
6:15 PM,77.0,71.6,83,30.10,10.0,NNE,8.1,-,N/A,,Mostly Cloudy,20,2013-08-19 22:15:00
6:35 PM,77.0,71.6,83,30.10,10.0,NE,9.2,-,N/A,,Scattered Clouds,40,2013-08-19 22:35:00
6:55 PM,77.0,71.6,83,30.09,10.0,ENE,6.9,-,N/A,,Scattered Clouds,60,2013-08-19 22:55:00
7:15 PM,75.2,71.6,89,30.09,10.0,East,5.8,-,N/A,,Scattered Clouds,90,2013-08-19 23:15:00
7:35 PM,75.2,71.6,89,30.09,10.0,NE,5.8,-,N/A,,Clear,40,2013-08-19 23:35:00
7:55 PM,75.2,71.6,89,30.10,10.0,North,5.8,-,N/A,,Mostly Cloudy,360,2013-08-19 23:55:00
8:15 PM,75.2,71.6,89,30.10,10.0,Calm,Calm,-,N/A,,Overcast,0,2013-08-20 00:15:00
8:35 PM,75.2,71.6,89,30.11,10.0,Calm,Calm,-,N/A,,Overcast,0,2013-08-20 00:35:00
8:55 PM,73.4,71.6,94,30.11,10.0,East,4.6,-,N/A,,Scattered Clouds,90,2013-08-20 00:55:00
9:15 PM,73.4,71.6,94,30.12,10.0,ENE,3.5,-,N/A,,Mostly Cloudy,70,2013-08-20 01:15:00
9:35 PM,73.4,71.6,94,30.12,10.0,ENE,4.6,-,N/A,,Overcast,60,2013-08-20 01:35:00
9:55 PM,73.4,71.6,94,30.12,10.0,ENE,4.6,-,N/A,,Mostly Cloudy,70,2013-08-20 01:55:00
10:15 PM,73.4,71.6,94,30.12,10.0,Calm,Calm,-,N/A,,Mostly Cloudy,0,2013-08-20 02:15:00
10:35 PM,73.4,71.6,94,30.12,10.0,NE,5.8,-,N/A,,Mostly Cloudy,50,2013-08-20 02:35:00
10:55 PM,73.4,71.6,94,30.11,10.0,ENE,5.8,-,N/A,,Overcast,70,2013-08-20 02:55:00
11:15 PM,73.4,71.6,94,30.12,10.0,Calm,Calm,-,N/A,,Overcast,0,2013-08-20 03:15:00
11:35 PM,73.4,71.6,94,30.13,10.0,Calm,Calm,-,N/A,,Mostly Cloudy,0,2013-08-20 03:35:00
11:55 PM,73.4,71.6,94,30.13,10.0,Calm,Calm,-,N/A,,Scattered Clouds,0,2013-08-20 03:55:00